Location: De Greiden
(52.9496°N, 5.9137°E)
Time: 22:50:09
(UTC+00:00)

Cosmos 1703 - Pass Details

Date: 24 January 2021
Orbit: 524 x 538 km, 82.5° (Epoch: 01 March)

Event Time Altitude Azimuth Distance (km) Brightness Sun altitude
Rises 18:22:37 0° 195° (SSW) 2,652 7.1 -20.1°
Reaches altitude 10° 18:24:45 10° 198° (SSW) 1,767 6.2 -20.5°
Maximum altitude 18:28:37 70° 282° (WNW) 565 3.4 -21.0°
Enters shadow 18:31:14 20° 4° (N) 1,265 5.1 -21.4°
